Time,TemperatureF,DewpointF,PressureIn,WindDirection,WindDirectionDegrees,WindSpeedMPH,WindSpeedGustMPH,Humidity,HourlyPrecipIn,Conditions,Clouds,dailyrainin,SoftwareType,DateUTC
2013-08-06 00:01:00,76.0,47.0,-100.00,ENE,71,1.0,2.0,36,0.00,,,0.00,,2013-08-06 06:01:00,
2013-08-06 00:22:00,73.0,46.0,-100.00,NNW,330,1.0,5.0,38,0.00,,,0.00,,2013-08-06 06:22:00,
2013-08-06 00:32:00,73.0,46.0,-100.00,NNW,330,1.0,5.0,38,0.00,,,0.00,,2013-08-06 06:32:00,
2013-08-06 00:43:00,73.0,46.0,-100.00,NNW,330,1.0,5.0,38,0.00,,,0.00,,2013-08-06 06:43:00,
2013-08-06 01:01:00,72.0,47.0,-100.00,WNW,292,2.0,4.0,42,0.00,,,0.00,,2013-08-06 07:01:00,
2013-08-06 01:11:00,72.0,47.0,-100.00,WNW,292,2.0,4.0,42,0.00,,,0.00,,2013-08-06 07:11:00,
2013-08-06 01:22:00,72.0,47.0,-100.00,WNW,292,2.0,4.0,42,0.00,,,0.00,,2013-08-06 07:22:00,
2013-08-06 01:43:00,71.0,47.0,-100.00,West,274,2.0,4.0,43,0.00,,,0.00,,2013-08-06 07:43:00,
2013-08-06 01:53:00,71.0,47.0,-100.00,West,274,2.0,4.0,43,0.00,,,0.00,,2013-08-06 07:53:00,
2013-08-06 02:01:00,73.0,46.0,-100.00,WNW,291,2.0,3.0,38,0.00,,,0.00,,2013-08-06 08:01:00,
2013-08-06 02:11:00,73.0,46.0,-100.00,WNW,291,2.0,3.0,38,0.00,,,0.00,,2013-08-06 08:11:00,
2013-08-06 02:21:00,73.0,46.0,-100.00,WNW,291,2.0,3.0,38,0.00,,,0.00,,2013-08-06 08:21:00,
2013-08-06 02:43:00,73.0,46.0,-100.00,North,356,2.0,4.0,37,0.00,,,0.00,,2013-08-06 08:43:00,
2013-08-06 02:52:00,73.0,46.0,-100.00,North,356,2.0,4.0,37,0.00,,,0.00,,2013-08-06 08:52:00,
2013-08-06 03:01:00,71.0,46.0,-100.00,NNE,24,3.0,4.0,40,0.00,,,0.00,,2013-08-06 09:01:00,
2013-08-06 03:11:00,71.0,46.0,-100.00,NNE,24,3.0,4.0,40,0.00,,,0.00,,2013-08-06 09:11:00,
2013-08-06 03:22:00,71.0,46.0,-100.00,NNE,24,3.0,4.0,40,0.00,,,0.00,,2013-08-06 09:22:00,
2013-08-06 03:32:00,71.0,45.0,-100.00,North,3,3.0,5.0,39,0.00,,,0.00,,2013-08-06 09:32:00,
2013-08-06 03:43:00,71.0,45.0,-100.00,North,3,3.0,5.0,39,0.00,,,0.00,,2013-08-06 09:43:00,
2013-08-06 03:52:00,71.0,45.0,-100.00,North,3,3.0,5.0,39,0.00,,,0.00,,2013-08-06 09:52:00,
2013-08-06 04:01:00,68.0,46.0,-100.00,North,1,4.0,8.0,45,0.00,,,0.00,,2013-08-06 10:01:00,
2013-08-06 04:11:00,68.0,46.0,-100.00,North,1,4.0,8.0,45,0.00,,,0.00,,2013-08-06 10:11:00,
2013-08-06 04:22:00,68.0,46.0,-100.00,North,1,4.0,8.0,45,0.00,,,0.00,,2013-08-06 10:22:00,
2013-08-06 04:42:00,65.0,46.0,-100.00,North,6,6.0,9.0,51,0.00,,,0.00,,2013-08-06 10:42:00,
2013-08-06 04:53:00,65.0,46.0,-100.00,North,6,6.0,9.0,51,0.00,,,0.00,,2013-08-06 10:53:00,
2013-08-06 05:01:00,65.0,46.0,-100.00,North,6,6.0,9.0,51,0.00,,,0.00,,2013-08-06 11:01:00,
2013-08-06 05:11:00,65.0,46.0,-100.00,NE,35,3.0,7.0,50,0.00,,,0.00,,2013-08-06 11:11:00,
2013-08-06 05:21:00,65.0,46.0,-100.00,NE,35,3.0,7.0,50,0.00,,,0.00,,2013-08-06 11:21:00,
2013-08-06 05:32:00,65.0,46.0,-100.00,North,359,5.0,8.0,50,0.00,,,0.00,,2013-08-06 11:32:00,
2013-08-06 05:43:00,65.0,46.0,-100.00,North,359,5.0,8.0,50,0.00,,,0.00,,2013-08-06 11:43:00,
2013-08-06 05:53:00,65.0,46.0,-100.00,North,359,5.0,8.0,50,0.00,,,0.00,,2013-08-06 11:53:00,
2013-08-06 06:01:00,66.0,46.0,-100.00,NW,320,2.0,4.0,47,0.00,,,0.00,,2013-08-06 12:01:00,
2013-08-06 06:11:00,66.0,46.0,-100.00,NW,320,2.0,4.0,47,0.00,,,0.00,,2013-08-06 12:11:00,
2013-08-06 06:22:00,66.0,46.0,-100.00,NW,320,2.0,4.0,47,0.00,,,0.00,,2013-08-06 12:22:00,
2013-08-06 06:30:00,62.0,46.0,-100.00,NNW,340,2.0,4.0,55,0.00,,,0.00,,2013-08-06 12:30:00,
2013-08-06 06:43:00,63.0,46.0,-100.00,NNW,347,2.0,4.0,54,0.00,,,0.00,,2013-08-06 12:43:00,
2013-08-06 06:52:00,63.0,46.0,-100.00,NNW,347,2.0,4.0,54,0.00,,,0.00,,2013-08-06 12:52:00,
2013-08-06 07:01:00,62.0,46.0,-100.00,NNW,340,2.0,4.0,55,0.00,,,0.00,,2013-08-06 13:01:00,
2013-08-06 07:11:00,62.0,46.0,-100.00,NNW,340,2.0,4.0,55,0.00,,,0.00,,2013-08-06 13:11:00,
2013-08-06 07:22:00,62.0,46.0,-100.00,NNW,340,2.0,4.0,55,0.00,,,0.00,,2013-08-06 13:22:00,
2013-08-06 07:53:00,63.0,46.0,-100.00,NNW,344,4.0,8.0,53,0.00,,,0.00,,2013-08-06 13:53:00,
2013-08-06 08:01:00,63.0,46.0,-100.00,NNW,344,4.0,8.0,53,0.00,,,0.00,,2013-08-06 14:01:00,
2013-08-06 08:22:00,62.0,46.0,-100.00,NNE,21,4.0,6.0,56,0.00,,,0.00,,2013-08-06 14:22:00,
2013-08-06 08:32:00,62.0,46.0,-100.00,NNE,21,4.0,6.0,56,0.00,,,0.00,,2013-08-06 14:32:00,
2013-08-06 08:53:00,64.0,47.0,-100.00,NNE,14,3.0,4.0,52,0.00,,,0.00,,2013-08-06 14:53:00,
2013-08-06 09:02:00,64.0,47.0,-100.00,NNE,14,3.0,4.0,52,0.00,,,0.00,,2013-08-06 15:02:00,
2013-08-06 09:22:00,67.0,47.0,-100.00,NNE,27,3.0,6.0,49,0.00,,,0.00,,2013-08-06 15:22:00,
2013-08-06 09:33:00,67.0,47.0,-100.00,NNE,27,3.0,6.0,49,0.00,,,0.00,,2013-08-06 15:33:00,
2013-08-06 09:44:00,70.0,48.0,-100.00,NNW,342,1.0,3.0,47,0.00,,,0.00,,2013-08-06 15:44:00,
2013-08-06 09:52:00,70.0,48.0,-100.00,NNW,342,1.0,3.0,47,0.00,,,0.00,,2013-08-06 15:52:00,
2013-08-06 10:01:00,70.0,48.0,-100.00,NNW,342,1.0,3.0,47,0.00,,,0.00,,2013-08-06 16:01:00,
2013-08-06 10:11:00,70.0,48.0,-100.00,NNW,342,1.0,3.0,47,0.00,,,0.00,,2013-08-06 16:11:00,
2013-08-06 10:22:00,75.0,48.0,-100.00,North,0,3.0,7.0,39,0.00,,,0.00,,2013-08-06 16:22:00,
2013-08-06 10:32:00,75.0,48.0,-100.00,North,0,3.0,7.0,39,0.00,,,0.00,,2013-08-06 16:32:00,
2013-08-06 10:42:00,78.0,47.0,-100.00,WNW,284,4.0,6.0,34,0.00,,,0.00,,2013-08-06 16:42:00,
2013-08-06 10:52:00,78.0,47.0,-100.00,WNW,284,4.0,6.0,34,0.00,,,0.00,,2013-08-06 16:52:00,
2013-08-06 11:02:00,78.0,47.0,-100.00,WNW,284,4.0,6.0,34,0.00,,,0.00,,2013-08-06 17:02:00,
2013-08-06 11:32:00,80.0,44.0,-100.00,NW,304,4.0,8.0,27,0.00,,,0.00,,2013-08-06 17:32:00,
2013-08-06 11:43:00,81.0,45.0,-100.00,NW,309,3.0,6.0,28,0.00,,,0.00,,2013-08-06 17:43:00,
2013-08-06 11:52:00,81.0,45.0,-100.00,NW,309,3.0,6.0,28,0.00,,,0.00,,2013-08-06 17:52:00,
2013-08-06 12:01:00,81.0,45.0,-100.00,NW,309,3.0,6.0,28,0.00,,,0.00,,2013-08-06 18:01:00,
2013-08-06 12:22:00,83.0,39.0,-100.00,WNW,302,3.0,5.0,21,0.00,,,0.00,,2013-08-06 18:22:00,
2013-08-06 12:32:00,83.0,39.0,-100.00,WNW,302,3.0,5.0,21,0.00,,,0.00,,2013-08-06 18:32:00,
2013-08-06 12:52:00,84.0,35.0,-100.00,NNW,335,5.0,7.0,17,0.00,,,0.00,,2013-08-06 18:52:00,
2013-08-06 13:01:00,84.0,35.0,-100.00,NNW,335,5.0,7.0,17,0.00,,,0.00,,2013-08-06 19:01:00,
2013-08-06 13:21:00,88.0,36.0,-100.00,SW,226,2.0,4.0,16,0.00,,,0.00,,2013-08-06 19:21:00,
2013-08-06 13:32:00,88.0,36.0,-100.00,SW,226,2.0,4.0,16,0.00,,,0.00,,2013-08-06 19:32:00,
2013-08-06 13:52:00,88.0,38.0,-100.00,NE,41,3.0,7.0,17,0.00,,,0.00,,2013-08-06 19:52:00,
2013-08-06 14:01:00,88.0,38.0,-100.00,NE,41,3.0,7.0,17,0.00,,,0.00,,2013-08-06 20:01:00,
2013-08-06 14:11:00,88.0,38.0,-100.00,NE,41,3.0,7.0,17,0.00,,,0.00,,2013-08-06 20:11:00,
2013-08-06 14:22:00,88.0,38.0,-100.00,NE,41,3.0,7.0,17,0.00,,,0.00,,2013-08-06 20:22:00,
2013-08-06 14:44:00,89.0,40.0,-100.00,WNW,289,3.0,5.0,18,0.00,,,0.00,,2013-08-06 20:44:00,
2013-08-06 14:52:00,89.0,40.0,-100.00,WNW,289,3.0,5.0,18,0.00,,,0.00,,2013-08-06 20:52:00,
2013-08-06 15:01:00,89.0,40.0,-100.00,WNW,289,3.0,5.0,18,0.00,,,0.00,,2013-08-06 21:01:00,
2013-08-06 15:11:00,90.0,37.0,-100.00,SSE,167,6.0,11.0,15,0.00,,,0.00,,2013-08-06 21:11:00,
2013-08-06 15:22:00,90.0,37.0,-100.00,SSE,167,6.0,11.0,15,0.00,,,0.00,,2013-08-06 21:22:00,
2013-08-06 15:43:00,91.0,36.0,-100.00,South,174,6.0,9.0,15,0.00,,,0.00,,2013-08-06 21:43:00,
2013-08-06 15:52:00,91.0,36.0,-100.00,South,174,6.0,9.0,15,0.00,,,0.00,,2013-08-06 21:52:00,
2013-08-06 16:11:00,89.0,36.0,-100.00,WNW,292,2.0,3.0,15,0.00,,,0.00,,2013-08-06 22:11:00,
2013-08-06 16:21:00,89.0,36.0,-100.00,WNW,292,2.0,3.0,15,0.00,,,0.00,,2013-08-06 22:21:00,
2013-08-06 16:32:00,90.0,37.0,-100.00,South,175,6.0,12.0,15,0.00,,,0.00,,2013-08-06 22:32:00,
2013-08-06 16:43:00,90.0,36.0,-100.00,SSE,162,6.0,10.0,15,0.00,,,0.00,,2013-08-06 22:43:00,
2013-08-06 17:01:00,89.0,35.0,-100.00,WNW,295,1.0,2.0,15,0.00,,,0.00,,2013-08-06 23:01:00,
2013-08-06 17:22:00,90.0,35.0,-100.00,South,171,5.0,8.0,14,0.00,,,0.00,,2013-08-06 23:22:00,
2013-08-06 17:32:00,90.0,35.0,-100.00,South,171,5.0,8.0,14,0.00,,,0.00,,2013-08-06 23:32:00,
2013-08-06 17:43:00,90.0,36.0,-100.00,SSE,164,6.0,10.0,15,0.00,,,0.00,,2013-08-06 23:43:00,
2013-08-06 17:52:00,90.0,36.0,-100.00,SSE,164,6.0,10.0,15,0.00,,,0.00,,2013-08-06 23:52:00,
2013-08-06 18:01:00,90.0,36.0,-100.00,SSE,164,6.0,10.0,15,0.00,,,0.00,,2013-08-07 00:01:00,
2013-08-06 18:21:00,90.0,40.0,-100.00,West,281,3.0,4.0,17,0.00,,,0.00,,2013-08-07 00:21:00,
2013-08-06 18:32:00,90.0,40.0,-100.00,West,281,3.0,4.0,17,0.00,,,0.00,,2013-08-07 00:32:00,
2013-08-06 18:43:00,90.0,39.0,-100.00,WNW,288,2.0,4.0,17,0.00,,,0.00,,2013-08-07 00:43:00,
2013-08-06 18:52:00,90.0,39.0,-100.00,WNW,288,2.0,4.0,17,0.00,,,0.00,,2013-08-07 00:52:00,
2013-08-06 19:01:00,90.0,39.0,-100.00,WNW,288,2.0,4.0,17,0.00,,,0.00,,2013-08-07 01:01:00,
2013-08-06 19:21:00,89.0,38.0,-100.00,WSW,247,1.0,3.0,17,0.00,,,0.00,,2013-08-07 01:21:00,
2013-08-06 19:32:00,89.0,38.0,-100.00,WSW,247,1.0,3.0,17,0.00,,,0.00,,2013-08-07 01:32:00,
2013-08-06 19:43:00,89.0,41.0,-100.00,WNW,288,2.0,5.0,19,0.00,,,0.00,,2013-08-07 01:43:00,
2013-08-06 19:52:00,89.0,41.0,-100.00,WNW,288,2.0,5.0,19,0.00,,,0.00,,2013-08-07 01:52:00,
2013-08-06 20:02:00,89.0,41.0,-100.00,WNW,288,2.0,5.0,19,0.00,,,0.00,,2013-08-07 02:02:00,
2013-08-06 20:22:00,88.0,40.0,-100.00,WNW,292,3.0,4.0,18,0.00,,,0.00,,2013-08-07 02:22:00,
2013-08-06 20:33:00,88.0,40.0,-100.00,WNW,292,3.0,4.0,18,0.00,,,0.00,,2013-08-07 02:33:00,
2013-08-06 20:53:00,87.0,38.0,-100.00,NW,306,5.0,7.0,18,0.00,,,0.00,,2013-08-07 02:53:00,
2013-08-06 21:01:00,87.0,38.0,-100.00,NW,306,5.0,7.0,18,0.00,,,0.00,,2013-08-07 03:01:00,
2013-08-06 21:22:00,84.0,39.0,-100.00,East,93,0.0,2.0,20,0.00,,,0.00,,2013-08-07 03:22:00,
2013-08-06 21:32:00,84.0,39.0,-100.00,East,93,0.0,2.0,20,0.00,,,0.00,,2013-08-07 03:32:00,
2013-08-06 21:52:00,79.0,43.0,-100.00,NE,49,1.0,4.0,28,0.00,,,0.00,,2013-08-07 03:52:00,
2013-08-06 22:00:00,79.0,40.0,-100.00,NNE,20,2.0,5.0,25,0.00,,,0.00,,2013-08-07 04:00:00,
2013-08-06 22:01:00,79.0,43.0,-100.00,NE,49,1.0,4.0,28,0.00,,,0.00,,2013-08-07 04:01:00,
2013-08-06 22:11:00,79.0,43.0,-100.00,NE,49,1.0,4.0,28,0.00,,,0.00,,2013-08-07 04:11:00,
2013-08-06 22:33:00,79.0,40.0,-100.00,NNE,20,2.0,5.0,25,0.00,,,0.00,,2013-08-07 04:33:00,
2013-08-06 22:42:00,79.0,40.0,-100.00,NNE,20,2.0,5.0,25,0.00,,,0.00,,2013-08-07 04:42:00,
2013-08-06 22:52:00,79.0,40.0,-100.00,NNE,20,2.0,5.0,25,0.00,,,0.00,,2013-08-07 04:52:00,